Beach, ND

5:36 AM MDT on April 23, 2017 (GMT -0600)
Beach

Weather History for K20U - March, 2013

Change the Weather History Date:

Sunday, March 24, 2013

  Actual Average (KGDV) Record (KGDV)
Temperature  
Mean Temperature 12 °F -  
Max Temperature 19 °F 44 °F 69 °F (2007)
Min Temperature 5 °F 23 °F 0 °F (2013)
Degree Days  
Heating Degree Days 53    
Moisture  
Dew Point 8 °F    
Average Humidity 86    
Maximum Humidity 93    
Minimum Humidity 74    
Precipitation  
Precipitation 0.80 in - - ()
Sea Level Pressure  
Sea Level Pressure 30.25 in    
Wind  
Wind Speed 13 mph (NW)    
Max Wind Speed 18 mph    
Max Gust Speed 25 mph    
Visibility 6 miles    
Events Snow    
Averages and records for this station are not official NWS values.
T = Trace of Precipitation, MM = Missing Value Source: NWS Daily Summary

Daily Weather History Graph

Daily Weather History Graph

Search for Another Location

Airport or City:

Trip Planner

Search our weather history database for the weather conditions in past years. The results will help you decide how hot, cold, wet, or windy it might be!

Date:

Astronomy

Mar. 24, 2013 Rise Set
Actual Time 6:50 AM MDT 7:14 PM MDT
Civil Twilight 6:19 AM MDT 7:45 PM MDT
Nautical Twilight 5:44 AM MDT 8:21 PM MDT
Astronomical Twilight 5:06 AM MDT 8:58 PM MDT
Moon 4:37 PM MDT (3/24) 5:11 AM MDT (3/24)
Length of Visible Light 13h 25m
Length of Day
12h 24m
Waxing Gibbous, 92% of the Moon is Illuminated
Mar 24
Waxing Gibbous
Mar 27
Full
Apr 2
Last Quarter
Apr 10
New
Apr 18
First Quarter

Hourly Weather History & Observations

Time (MDT) Temp. Windchill Dew Point Humidity Pressure Visibility Wind Dir Wind Speed Gust Speed Precip Events Conditions
12:15 AM 5.0 °F -10.8 °F 3.2 °F 92% 30.20 in 8.0 mi WNW 11.5 mph - 0.01 in Snow Light Snow
12:35 AM 5.0 °F -10.8 °F 1.4 °F 85% 30.20 in 10.0 mi WNW 11.5 mph - 0.02 in Snow Light Snow
12:55 AM 5.0 °F -10.8 °F 3.2 °F 92% 30.20 in 10.0 mi WNW 11.5 mph - 0.03 in Snow Light Snow
1:15 AM 6.8 °F -8.6 °F 3.2 °F 85% 30.20 in 7.0 mi WNW 11.5 mph - 0.01 in Snow Light Snow
1:35 AM 6.8 °F -7.8 °F 3.2 °F 85% 30.20 in 9.0 mi WNW 10.4 mph - 0.01 in Snow Light Snow
1:55 AM 6.8 °F -8.6 °F 5.0 °F 92% 30.20 in 5.0 mi WNW 11.5 mph - 0.02 in Snow Light Snow
2:15 AM 6.8 °F -8.6 °F 5.0 °F 92% 30.20 in 9.0 mi WNW 11.5 mph - N/A Snow Light Snow
2:35 AM 6.8 °F -8.6 °F 3.2 °F 85% 30.20 in 8.0 mi WNW 11.5 mph - N/A Snow Light Snow
2:55 AM 6.8 °F -9.3 °F 5.0 °F 92% 30.20 in 5.0 mi WNW 12.7 mph - N/A Snow Light Snow
3:15 AM 6.8 °F -10.0 °F 5.0 °F 92% 30.20 in 7.0 mi WNW 13.8 mph - N/A Snow Light Snow
3:35 AM 6.8 °F -8.6 °F 3.2 °F 85% 30.19 in 7.0 mi WNW 11.5 mph - N/A Snow Light Snow
3:55 AM 6.8 °F -8.6 °F 5.0 °F 92% 30.19 in 3.0 mi WNW 11.5 mph - 0.01 in Snow Light Snow
4:15 AM 6.8 °F -9.3 °F 5.0 °F 92% 30.19 in 3.0 mi WNW 12.7 mph - N/A Snow Light Snow
4:35 AM 6.8 °F -9.3 °F 5.0 °F 92% 30.19 in 5.0 mi WNW 12.7 mph - 0.01 in Snow Light Snow
4:55 AM 6.8 °F -9.3 °F 5.0 °F 92% 30.19 in 5.0 mi WNW 12.7 mph - 0.01 in Snow Light Snow
5:15 AM 6.8 °F -8.6 °F 5.0 °F 92% 30.20 in 5.0 mi WNW 11.5 mph - N/A Snow Light Snow
5:35 AM 6.8 °F -7.8 °F 5.0 °F 92% 30.20 in 6.0 mi WNW 10.4 mph - 0.01 in Snow Light Snow
5:55 AM 6.8 °F -8.6 °F 5.0 °F 92% 30.20 in 7.0 mi WNW 11.5 mph - 0.02 in Snow Light Snow
6:15 AM 6.8 °F -7.8 °F 3.2 °F 85% 30.21 in 5.0 mi WNW 10.4 mph - N/A Snow Light Snow
6:35 AM 6.8 °F -9.3 °F 3.2 °F 85% 30.21 in 4.0 mi WNW 12.7 mph - 0.02 in Snow Light Snow
6:55 AM 6.8 °F -8.6 °F 3.2 °F 85% 30.21 in 2.5 mi WNW 11.5 mph - 0.03 in Snow Light Snow
7:15 AM 6.8 °F -8.6 °F 5.0 °F 92% 30.21 in 3.0 mi WNW 11.5 mph - N/A Snow Light Snow
7:35 AM 6.8 °F -8.6 °F 5.0 °F 92% 30.22 in 5.0 mi WNW 11.5 mph - N/A Snow Light Snow
7:55 AM 6.8 °F -9.3 °F 5.0 °F 92% 30.22 in 7.0 mi WNW 12.7 mph - N/A Snow Light Snow
8:15 AM 8.6 °F -6.3 °F 5.0 °F 85% 30.22 in 6.0 mi NW 11.5 mph - N/A Snow Light Snow
8:35 AM 8.6 °F -7.7 °F 5.0 °F 85% 30.22 in 8.0 mi WNW 13.8 mph - N/A Snow Light Snow
8:55 AM 8.6 °F -8.9 °F 5.0 °F 85% 30.22 in 8.0 mi NW 16.1 mph - N/A Snow Light Snow
9:15 AM 8.6 °F -8.3 °F 6.8 °F 92% 30.22 in 6.0 mi NW 15.0 mph - N/A Snow Light Snow
9:35 AM 10.4 °F -6.0 °F 6.8 °F 85% 30.23 in 4.0 mi NW 15.0 mph 19.6 mph N/A Snow Light Snow
9:55 AM 10.4 °F -6.0 °F 6.8 °F 85% 30.23 in 3.0 mi NW 15.0 mph - 0.01 in Snow Light Snow
10:15 AM 10.4 °F -6.6 °F 6.8 °F 85% 30.23 in 9.0 mi NW 16.1 mph - N/A Snow Light Snow
10:35 AM 12.2 °F -3.7 °F 6.8 °F 79% 30.24 in 6.0 mi NW 15.0 mph 19.6 mph N/A Snow Light Snow
10:55 AM 14.0 °F -2.0 °F 8.6 °F 79% 30.24 in 7.0 mi NW 16.1 mph 19.6 mph N/A Snow Light Snow
11:15 AM 14.0 °F -0.8 °F 8.6 °F 79% 30.25 in 6.0 mi NW 13.8 mph - N/A Snow Light Snow
11:35 AM 14.0 °F -0.8 °F 8.6 °F 79% 30.25 in 7.0 mi NW 13.8 mph - 0.02 in Snow Light Snow
11:55 AM 15.8 °F 0.9 °F 10.4 °F 79% 30.25 in 9.0 mi NW 15.0 mph 20.7 mph 0.02 in Snow Light Snow
12:15 PM 15.8 °F 2.1 °F 10.4 °F 79% 30.25 in 4.0 mi NW 12.7 mph 19.6 mph 0.02 in Snow Light Snow
12:35 PM 15.8 °F 0.9 °F 10.4 °F 79% 30.25 in 4.0 mi NW 15.0 mph - 0.05 in Snow Light Snow
12:55 PM 15.8 °F 1.4 °F 10.4 °F 79% 30.25 in 2.0 mi NNW 13.8 mph - 0.07 in Snow Light Snow
1:15 PM 15.8 °F -0.2 °F 10.4 °F 79% 30.25 in 2.0 mi NW 17.3 mph - 0.01 in Snow Light Snow
1:35 PM 17.6 °F 2.2 °F 12.2 °F 79% 30.26 in 1.0 mi NW 17.3 mph - 0.07 in Snow Light Snow
1:55 PM 17.6 °F 1.7 °F 12.2 °F 79% 30.26 in 1.0 mi NW 18.4 mph - 0.28 in Snow Light Snow
2:15 PM 17.6 °F 1.7 °F 14.0 °F 86% 30.26 in 2.0 mi NW 18.4 mph - 0.02 in Snow Light Snow
2:35 PM 17.6 °F 1.7 °F 14.0 °F 86% 30.26 in 5.0 mi NNW 18.4 mph 23.0 mph 0.03 in Snow Light Snow
2:55 PM 19.4 °F 4.5 °F 12.2 °F 74% 30.26 in 4.0 mi NNW 17.3 mph 25.3 mph 0.05 in Snow Light Snow
3:15 PM 19.4 °F 4.1 °F 14.0 °F 80% 30.26 in 2.5 mi NNW 18.4 mph 23.0 mph 0.02 in Snow Light Snow
3:35 PM 17.6 °F 1.7 °F 14.0 °F 86% 30.27 in 3.0 mi NNW 18.4 mph - 0.12 in Snow Light Snow
3:55 PM 17.6 °F 2.2 °F 14.0 °F 86% 30.27 in 3.0 mi NNW 17.3 mph 24.2 mph 0.15 in Snow Light Snow
4:15 PM 17.6 °F 2.7 °F 14.0 °F 86% 30.28 in 3.0 mi NNW 16.1 mph - 0.03 in Snow Light Snow
4:35 PM 17.6 °F 2.7 °F 14.0 °F 86% 30.28 in 5.0 mi NNW 16.1 mph - 0.06 in Snow Light Snow
4:55 PM 19.4 °F 4.5 °F 14.0 °F 80% 30.28 in 8.0 mi NNW 17.3 mph 21.9 mph 0.07 in Snow Light Snow
5:15 PM 17.6 °F 1.7 °F 12.2 °F 79% 30.28 in 10.0 mi NNW 18.4 mph 21.9 mph N/A   Mostly Cloudy
5:35 PM 17.6 °F 2.2 °F 12.2 °F 79% 30.29 in 10.0 mi NNW 17.3 mph 21.9 mph N/A Snow Light Snow
5:55 PM 17.6 °F 3.2 °F 12.2 °F 79% 30.29 in 9.0 mi NNW 15.0 mph - N/A Snow Light Snow
6:15 PM 15.8 °F 1.4 °F 14.0 °F 93% 30.29 in 6.0 mi NNW 13.8 mph - 0.01 in Snow Light Snow
6:35 PM 15.8 °F 1.4 °F 12.2 °F 86% 30.29 in 10.0 mi NNW 13.8 mph 17.3 mph 0.01 in   Mostly Cloudy
6:55 PM 14.0 °F 2.0 °F 10.4 °F 86% 30.29 in 10.0 mi NNW 9.2 mph - 0.01 in   Mostly Cloudy
7:15 PM 14.0 °F 2.9 °F 10.4 °F 86% 30.30 in 10.0 mi NNW 8.1 mph - N/A Snow Light Snow
7:55 PM 14.0 °F 2.0 °F 12.2 °F 93% 30.30 in 10.0 mi NNW 9.2 mph - N/A Snow Light Snow
8:15 PM 14.0 °F 2.0 °F 10.4 °F 86% 30.30 in 10.0 mi NNW 9.2 mph - N/A   Overcast
8:35 PM 14.0 °F 2.0 °F 10.4 °F 86% 30.30 in 10.0 mi NNW 9.2 mph - N/A   Overcast
8:55 PM 14.0 °F 2.9 °F 10.4 °F 86% 30.31 in 10.0 mi NW 8.1 mph - N/A   Overcast
9:15 PM 12.2 °F 1.7 °F 10.4 °F 92% 30.31 in 10.0 mi WNW 6.9 mph - N/A Snow Light Snow
9:35 PM 12.2 °F 2.9 °F 10.4 °F 92% 30.31 in 10.0 mi WNW 5.8 mph - N/A Snow Light Snow
9:55 PM 12.2 °F 2.9 °F 10.4 °F 92% 30.31 in 10.0 mi WNW 5.8 mph - N/A   Overcast
10:15 PM 12.2 °F 0.7 °F 10.4 °F 92% 30.31 in 10.0 mi NNW 8.1 mph - N/A   Overcast
10:55 PM 12.2 °F -0.2 °F 10.4 °F 92% 30.32 in 10.0 mi NNW 9.2 mph - N/A Snow Light Snow
11:15 PM 12.2 °F 1.7 °F 10.4 °F 92% 30.31 in 10.0 mi NNW 6.9 mph - N/A Snow Light Snow
11:35 PM 12.2 °F 1.7 °F 10.4 °F 92% 30.31 in 6.0 mi NNW 6.9 mph - N/A Snow Light Snow
11:55 PM 10.4 °F 0.8 °F 8.6 °F 92% 30.32 in 6.0 mi NW 5.8 mph - 0.02 in Snow Light Snow